TimeCDT,TemperatureF,Dew PointF,Humidity,Sea Level PressureIn,VisibilityMPH,Wind Direction,Wind SpeedMPH,Gust SpeedMPH,PrecipitationIn,Events,Conditions,WindDirDegrees,DateUTC
12:16 AM,24.8,15.8,69,30.06,10.0,NW,19.6,23.0,N/A,,Clear,310,2013-04-01 05:16:00
12:35 AM,24.8,15.8,69,30.06,10.0,NW,12.7,18.4,N/A,,Clear,320,2013-04-01 05:35:00
12:55 AM,24.8,15.8,69,30.06,10.0,NW,18.4,24.2,N/A,,Clear,320,2013-04-01 05:55:00
1:16 AM,24.8,15.8,69,30.07,10.0,NW,19.6,23.0,N/A,,Clear,310,2013-04-01 06:16:00
1:35 AM,23.0,14.0,68,30.08,10.0,NW,15.0,25.3,N/A,,Clear,320,2013-04-01 06:35:00
1:55 AM,23.0,14.0,68,30.09,10.0,NNW,13.8,23.0,N/A,,Clear,330,2013-04-01 06:55:00
2:16 AM,23.0,15.8,74,30.09,10.0,NNW,13.8,-,N/A,,Clear,330,2013-04-01 07:16:00
2:35 AM,23.0,14.0,68,30.09,10.0,NW,17.3,-,N/A,,Clear,320,2013-04-01 07:35:00
2:55 AM,21.2,12.2,68,30.10,10.0,NW,13.8,18.4,N/A,,Clear,320,2013-04-01 07:55:00
3:16 AM,21.2,12.2,68,30.10,10.0,NW,15.0,23.0,N/A,,Clear,320,2013-04-01 08:16:00
3:35 AM,21.2,12.2,68,30.10,10.0,NW,15.0,21.9,N/A,,Clear,310,2013-04-01 08:35:00
3:55 AM,21.2,12.2,68,30.11,10.0,NW,15.0,-,N/A,,Clear,310,2013-04-01 08:55:00
4:16 AM,21.2,12.2,68,30.12,10.0,NNW,12.7,21.9,N/A,,Clear,330,2013-04-01 09:16:00
4:35 AM,21.2,12.2,68,30.12,10.0,NW,16.1,-,N/A,,Clear,320,2013-04-01 09:35:00
4:55 AM,21.2,12.2,68,30.12,10.0,NW,13.8,20.7,N/A,,Clear,320,2013-04-01 09:55:00
5:16 AM,19.4,12.2,74,30.13,10.0,NW,10.4,-,N/A,,Scattered Clouds,310,2013-04-01 10:16:00
5:35 AM,19.4,12.2,74,30.14,10.0,NW,11.5,18.4,N/A,,Scattered Clouds,310,2013-04-01 10:35:00
5:55 AM,19.4,12.2,74,30.14,10.0,NW,13.8,18.4,N/A,,Scattered Clouds,310,2013-04-01 10:55:00
6:16 AM,19.4,12.2,74,30.15,10.0,NW,10.4,20.7,N/A,,Mostly Cloudy,320,2013-04-01 11:16:00
6:35 AM,19.4,12.2,74,30.16,10.0,NW,8.1,-,N/A,,Mostly Cloudy,320,2013-04-01 11:35:00
6:55 AM,19.4,12.2,74,30.17,10.0,NNW,11.5,-,N/A,,Mostly Cloudy,330,2013-04-01 11:55:00
7:16 AM,19.4,12.2,74,30.17,10.0,NW,13.8,17.3,N/A,,Mostly Cloudy,310,2013-04-01 12:16:00
7:35 AM,19.4,12.2,74,30.18,10.0,NW,10.4,-,N/A,,Overcast,310,2013-04-01 12:35:00
7:55 AM,19.4,12.2,74,30.19,10.0,NW,15.0,19.6,N/A,,Scattered Clouds,310,2013-04-01 12:55:00
8:15 AM,19.4,12.2,74,30.19,10.0,NW,15.0,19.6,N/A,,Scattered Clouds,310,2013-04-01 13:15:00
8:35 AM,21.2,12.2,68,30.20,10.0,NW,13.8,19.6,N/A,,Scattered Clouds,310,2013-04-01 13:35:00
8:56 AM,21.2,12.2,68,30.20,10.0,NW,16.1,23.0,N/A,,Clear,320,2013-04-01 13:56:00
9:16 AM,21.2,12.2,68,30.20,10.0,NNW,12.7,18.4,N/A,,Scattered Clouds,330,2013-04-01 14:16:00
9:35 AM,23.0,12.2,63,30.20,10.0,NW,16.1,-,N/A,,Clear,320,2013-04-01 14:35:00
9:56 AM,23.0,12.2,63,30.21,10.0,NNW,15.0,24.2,N/A,,Clear,330,2013-04-01 14:56:00
10:16 AM,24.8,12.2,59,30.21,10.0,WNW,19.6,24.2,N/A,,Clear,300,2013-04-01 15:16:00
10:35 AM,24.8,12.2,59,30.22,10.0,NW,18.4,21.9,N/A,,Clear,310,2013-04-01 15:35:00
11:16 AM,24.8,12.2,59,30.22,10.0,NW,16.1,23.0,N/A,,Clear,320,2013-04-01 16:16:00
11:35 AM,26.6,12.2,55,30.23,10.0,NNW,18.4,24.2,N/A,,Scattered Clouds,340,2013-04-01 16:35:00
11:55 AM,26.6,12.2,55,30.23,10.0,NW,17.3,23.0,N/A,,Scattered Clouds,320,2013-04-01 16:55:00
12:16 PM,28.4,14.0,55,30.23,10.0,NNW,15.0,21.9,N/A,,Scattered Clouds,330,2013-04-01 17:16:00
12:35 PM,26.6,12.2,55,30.23,10.0,WNW,13.8,19.6,N/A,,Scattered Clouds,300,2013-04-01 17:35:00
1:15 PM,28.4,14.0,55,30.23,10.0,NNW,15.0,23.0,N/A,,Clear,340,2013-04-01 18:15:00
1:35 PM,28.4,14.0,55,30.23,10.0,NNW,13.8,20.7,N/A,,Scattered Clouds,330,2013-04-01 18:35:00
1:56 PM,30.2,15.8,55,30.23,10.0,NNW,17.3,23.0,N/A,,Scattered Clouds,330,2013-04-01 18:56:00
2:15 PM,30.2,15.8,55,30.23,10.0,NNW,13.8,20.7,N/A,,Scattered Clouds,330,2013-04-01 19:15:00
2:35 PM,30.2,15.8,55,30.22,10.0,NNW,13.8,21.9,N/A,,Scattered Clouds,330,2013-04-01 19:35:00
2:56 PM,30.2,14.0,51,30.22,10.0,NNW,17.3,-,N/A,,Scattered Clouds,330,2013-04-01 19:56:00
3:15 PM,30.2,14.0,51,30.22,10.0,NW,17.3,20.7,N/A,,Scattered Clouds,320,2013-04-01 20:15:00
3:35 PM,32.0,12.2,44,30.22,10.0,NW,16.1,20.7,N/A,,Clear,320,2013-04-01 20:35:00
3:56 PM,32.0,12.2,44,30.22,10.0,WNW,16.1,-,N/A,,Clear,290,2013-04-01 20:56:00
4:15 PM,32.0,15.8,51,30.22,10.0,NW,12.7,23.0,N/A,,Clear,310,2013-04-01 21:15:00
4:35 PM,32.0,10.4,41,30.21,10.0,NNW,12.7,21.9,N/A,,Clear,330,2013-04-01 21:35:00
4:56 PM,33.8,14.0,44,30.21,10.0,NW,13.8,19.6,N/A,,Scattered Clouds,310,2013-04-01 21:56:00
5:16 PM,33.8,14.0,44,30.21,10.0,NW,13.8,19.6,N/A,,Clear,310,2013-04-01 22:16:00
5:35 PM,32.0,12.2,44,30.21,10.0,WNW,13.8,20.7,N/A,,Clear,300,2013-04-01 22:35:00
5:56 PM,32.0,14.0,48,30.21,10.0,WNW,15.0,20.7,N/A,,Clear,300,2013-04-01 22:56:00
6:16 PM,32.0,14.0,48,30.21,10.0,NW,13.8,19.6,N/A,,Clear,310,2013-04-01 23:16:00
6:35 PM,32.0,12.2,44,30.21,10.0,NW,12.7,-,N/A,,Clear,310,2013-04-01 23:35:00
6:56 PM,30.2,12.2,47,30.21,10.0,WNW,16.1,-,N/A,,Clear,300,2013-04-01 23:56:00
7:16 PM,30.2,15.8,55,30.20,10.0,NW,11.5,-,N/A,,Clear,320,2013-04-02 00:16:00
7:35 PM,30.2,14.0,51,30.21,10.0,NW,11.5,-,N/A,,Clear,320,2013-04-02 00:35:00
7:55 PM,28.4,15.8,59,30.21,10.0,WNW,9.2,-,N/A,,Clear,300,2013-04-02 00:55:00
8:16 PM,28.4,15.8,59,30.21,10.0,NW,10.4,-,N/A,,Clear,310,2013-04-02 01:16:00
8:35 PM,28.4,15.8,59,30.22,10.0,WNW,8.1,-,N/A,,Clear,300,2013-04-02 01:35:00
8:56 PM,28.4,15.8,59,30.22,10.0,NW,6.9,-,N/A,,Clear,310,2013-04-02 01:56:00
9:15 PM,28.4,17.6,64,30.22,10.0,NW,10.4,-,N/A,,Clear,310,2013-04-02 02:15:00
9:36 PM,28.4,15.8,59,30.23,10.0,NW,11.5,-,N/A,,Clear,310,2013-04-02 02:36:00
9:55 PM,28.4,17.6,64,30.24,10.0,WNW,10.4,-,N/A,,Clear,300,2013-04-02 02:55:00
10:15 PM,28.4,17.6,64,30.24,10.0,WNW,8.1,-,N/A,,Clear,290,2013-04-02 03:15:00
10:36 PM,26.6,17.6,69,30.24,10.0,WNW,9.2,-,N/A,,Clear,300,2013-04-02 03:36:00
10:55 PM,26.6,17.6,69,30.24,10.0,NW,10.4,-,N/A,,Clear,310,2013-04-02 03:55:00
11:16 PM,26.6,17.6,69,30.24,10.0,NW,10.4,-,N/A,,Clear,310,2013-04-02 04:16:00
11:35 PM,26.6,17.6,69,30.24,10.0,NW,10.4,-,N/A,,Clear,310,2013-04-02 04:35:00
11:55 PM,26.6,17.6,69,30.24,10.0,NW,10.4,-,N/A,,Clear,310,2013-04-02 04:55:00